| time (UTC) | temp F | wind direction | speed MPH | gust MPH | rain 1hr in | rain 24hr in | rain mn in | humidity % | barometer mb |
| 20260504044539 | 46 | 6 | 0.0 | 1.0 | 0.00 | 0.00 | 0.00 | 73 | 1007.6 |
| 20260504043036 | 46 | 6 | 0.0 | 0.0 | 0.00 | 0.00 | 0.00 | 72 | 1007.5 |
| 20260504041541 | 46 | 4 | 0.0 | 0.0 | 0.00 | 0.00 | 0.00 | 70 | 1007.7 |
| 20260504040037 | 47 | 4 | 0.0 | 1.0 | 0.00 | 0.00 | 0.00 | 69 | 1007.7 |
| 20260504034529 | 48 | 115 | 0.0 | 2.0 | 0.00 | 0.00 | 0.00 | 68 | 1007.9 |
| 20260504033027 | 48 | 115 | 0.0 | 0.0 | 0.00 | 0.00 | 0.00 | 68 | 1008.0 |
| 20260504031524 | 48 | 338 | 1.0 | 3.0 | 0.00 | 0.00 | 0.00 | 68 | 1008.1 |
| 20260504030024 | 48 | 262 | 0.0 | 0.0 | 0.00 | 0.00 | 0.00 | 68 | 1008.2 |
| 20260504024524 | 48 | 262 | 0.0 | 0.0 | 0.00 | 0.00 | 0.00 | 67 | 1008.2 |
| 20260504023021 | 48 | 262 | 0.0 | 0.0 | 0.00 | 0.00 | 0.00 | 67 | 1008.1 |
| 20260504021518 | 49 | 262 | 0.0 | 1.0 | 0.00 | 0.00 | 0.00 | 66 | 1008.3 |
| 20260504020031 | 49 | 244 | 0.0 | 1.0 | 0.00 | 0.00 | 0.00 | 65 | 1008.3 |
| 20260504014514 | 50 | 230 | 0.0 | 1.0 | 0.00 | 0.00 | 0.00 | 64 | 1008.5 |
| 20260504013012 | 50 | 231 | 0.0 | 1.0 | 0.00 | 0.00 | 0.00 | 64 | 1008.6 |
| 20260504011509 | 51 | 260 | 0.0 | 1.0 | 0.00 | 0.00 | 0.00 | 63 | 1008.7 |
| 20260504010010 | 51 | 260 | 1.0 | 4.0 | 0.00 | 0.00 | 0.00 | 63 | 1008.7 |
| 20260504004510 | 51 | 99 | 0.0 | 0.0 | 0.00 | 0.00 | 0.00 | 65 | 1008.8 |
| 20260504003004 | 51 | 86 | 0.0 | 0.0 | 0.00 | 0.00 | 0.00 | 65 | 1008.9 |
| 20260504001508 | 51 | 84 | 0.0 | 0.0 | 0.00 | 0.00 | 0.00 | 64 | 1008.9 |
| 20260504000001 | 51 | 85 | 0.0 | 0.0 | 0.00 | 0.00 | 0.00 | 63 | 1009.0 |
| 20260503234600 | 52 | 46 | 0.0 | 0.0 | 0.00 | 0.00 | 0.00 | 64 | 1008.9 |
| 20260503233057 | 52 | 45 | 0.0 | 0.0 | 0.00 | 0.00 | 0.00 | 64 | 1009.0 |
| 20260503231556 | 52 | 47 | 0.0 | 1.0 | 0.00 | 0.00 | 0.00 | 63 | 1009.1 |
| 20260503230105 | 52 | 28 | 1.0 | 3.0 | 0.00 | 0.00 | 0.00 | 63 | 1009.2 |
| 20260503224601 | 53 | 32 | 1.0 | 4.0 | 0.00 | 0.00 | 0.00 | 63 | 1009.3 |
| 20260503223050 | 53 | 32 | 2.0 | 4.0 | 0.00 | 0.00 | 0.00 | 63 | 1009.3 |
| 20260503221559 | 53 | 49 | 2.0 | 4.0 | 0.00 | 0.00 | 0.00 | 62 | 1009.4 |
| 20260503220048 | 53 | 37 | 1.0 | 4.0 | 0.00 | 0.00 | 0.00 | 63 | 1009.6 |
| 20260503214546 | 53 | 51 | 2.0 | 4.0 | 0.00 | 0.00 | 0.00 | 63 | 1009.4 |
| 20260503213047 | 53 | 79 | 2.0 | 5.0 | 0.00 | 0.00 | 0.00 | 64 | 1009.3 |
| 20260503211544 | 53 | 51 | 3.0 | 5.0 | 0.00 | 0.00 | 0.00 | 64 | 1009.4 |
| 20260503210044 | 53 | 47 | 3.0 | 5.0 | 0.00 | 0.00 | 0.00 | 64 | 1009.4 |
| 20260503204553 | 54 | 25 | 1.0 | 5.0 | 0.00 | 0.00 | 0.00 | 66 | 1009.3 |
| 20260503203045 | 54 | 341 | 0.0 | 2.0 | 0.00 | 0.00 | 0.00 | 65 | 1009.1 |
| 20260503201543 | 54 | 349 | 0.0 | 3.0 | 0.00 | 0.00 | 0.00 | 65 | 1008.9 |
| 20260503200042 | 54 | 321 | 0.0 | 2.0 | 0.00 | 0.00 | 0.00 | 65 | 1008.6 |
| 20260503194545 | 54 | 338 | 0.0 | 2.0 | 0.00 | 0.00 | 0.00 | 66 | 1008.4 |
| 20260503193046 | 54 | 20 | 0.0 | 0.0 | 0.00 | 0.00 | 0.00 | 65 | 1008.2 |
| 20260503191604 | 55 | 21 | 0.0 | 0.0 | 0.00 | 0.00 | 0.00 | 65 | 1008.1 |
| 20260503190039 | 55 | 42 | 2.0 | 3.0 | 0.00 | 0.00 | 0.00 | 64 | 1008.0 |
| 20260503184539 | 56 | 352 | 0.0 | 3.0 | 0.00 | 0.00 | 0.00 | 62 | 1007.9 |
| 20260503183038 | 57 | 354 | 4.0 | 7.0 | 0.00 | 0.00 | 0.00 | 61 | 1007.8 |
| 20260503181547 | 59 | 299 | 5.0 | 13.0 | 0.00 | 0.00 | 0.00 | 46 | 1007.6 |
| 20260503180040 | 60 | 319 | 4.0 | 9.0 | 0.00 | 0.00 | 0.00 | 43 | 1007.4 |
| 20260503174545 | 60 | 245 | 4.0 | 8.0 | 0.00 | 0.00 | 0.00 | 40 | 1007.3 |
| 20260503173037 | 60 | 256 | 4.0 | 11.0 | 0.00 | 0.00 | 0.00 | 38 | 1007.2 |
| 20260503171535 | 60 | 292 | 6.0 | 13.0 | 0.00 | 0.00 | 0.00 | 37 | 1007.1 |
| 20260503081536 | 53 | 44 | 1.0 | 8.0 | 0.00 | 0.00 | 0.00 | 83 | 1010.1 |
| 20260503071529 | 52 | 316 | 1.0 | 5.0 | 0.00 | 0.00 | 0.00 | 84 | 1009.8 |
| 20260503054524 | 52 | 287 | 0.0 | 0.0 | 0.00 | 0.01 | 0.00 | 83 | 1009.6 |
| 20260503053026 | 52 | 288 | 0.0 | 1.0 | 0.00 | 0.01 | 0.00 | 83 | 1009.7 |
| 20260503051520 | 52 | 297 | 0.0 | 2.0 | 0.00 | 0.01 | 0.00 | 83 | 1009.8 |